This is the latest recevied weather packets stored in our database for station/object KG5WBN. If no packets are shown the sender has not sent any weather packets the latest 10 day(s).
| Time | Temp. | Humidity | Pressure | Rain* | Wind** | Luminosity | Snow |
|---|---|---|---|---|---|---|---|
| 1777770567 | 21.11° C | 31% | 1016.6 hPa | 0 mm | - | 0 W/m² | - |
| 1777770264 | 21.11° C | 31% | 1016.3 hPa | 0 mm | - | 0 W/m² | - |
| 1777769961 | 21.11° C | 31% | 1016.3 hPa | 0 mm | - | 0 W/m² | - |
| 1777769658 | 21.11° C | 31% | 1016.3 hPa | 0 mm | - | 0 W/m² | - |
| 1777769355 | 21.11° C | 31% | 1016.3 hPa | 0 mm | - | 0 W/m² | - |
| 1777769052 | 21.11° C | 31% | 1016.3 hPa | 0 mm | - | 0 W/m² | - |
| 1777768749 | 21.11° C | 30% | 1016.3 hPa | 0 mm | - | 2 W/m² | - |
| 1777768446 | 21.11° C | 30% | 1016.3 hPa | 0 mm | - | 3 W/m² | - |
| 1777768143 | 21.11° C | 30% | 1015.9 hPa | 0 mm | - | 5 W/m² | - |
| 1777767841 | 21.67° C | 30% | 1015.9 hPa | 0 mm | - | 6 W/m² | - |
| 1777767536 | 21.67° C | 29% | 1015.6 hPa | 0 mm | - | 9 W/m² | - |
| 1777767233 | 21.67° C | 29% | 1015.6 hPa | 0 mm | - | 12 W/m² | - |
| 1777766931 | 21.67° C | 29% | 1015.6 hPa | 0 mm | - | 14 W/m² | - |
| 1777766628 | 21.67° C | 29% | 1015.6 hPa | 0 mm | - | 13 W/m² | - |
| 1777766324 | 22.78° C | 28% | 1015.6 hPa | 0 mm | - | 16 W/m² | - |
| 1777766022 | 22.78° C | 32% | 1015.6 hPa | 0 mm | - | 19 W/m² | - |
| 1777765718 | 22.78° C | 34% | 1015.2 hPa | 0 mm | - | 21 W/m² | - |
| 1777765415 | 22.78° C | 34% | 1015.6 hPa | 0 mm | - | 23 W/m² | - |
| 1777765112 | 22.78° C | 31% | 1015.2 hPa | 0 mm | - | 26 W/m² | - |
| 1777764802 | 23.33° C | 34% | 1015.2 hPa | 0 mm | - | 27 W/m² | - |
| 1777764500 | 23.33° C | 34% | 1015.2 hPa | 0 mm | - | 38 W/m² | - |
| 1777764196 | 23.89° C | 34% | 1015.2 hPa | 0 mm | - | 57 W/m² | - |
| 1777763892 | 23.89° C | 34% | 1015.2 hPa | 0 mm | - | 91 W/m² | - |
| 1777763590 | 23.33° C | 34% | 1014.9 hPa | 0 mm | - | 39 W/m² | - |
| 1777763288 | 23.33° C | 34% | 1014.9 hPa | 0 mm | - | 36 W/m² | - |
* Rain latest hour (hover to see other rain measurements)
** Current wind speed in m/s (hover to see current wind gust speed)